Location: Caltech
(34.1382°N, 118.1253°W)
Time: 11:58:01
(UTC-07:00)

JAS-2 - Visible Passes

Search period start: 16 April 2014 00:00
Search period end: 26 April 2014 00:00
Orbit: 799 x 1323 km, 98.5° (Epoch: 16 April)

Date Brightness Start Highest point End Pass type
(mag) Time Alt. Az. Time Alt. Az. Time Alt. Az.
16 Apr 11.3 20:10:54 10° SSW 20:16:22 32° W 20:21:21 10° NW visible
18 Apr 11.1 20:05:59 10° SSW 20:11:27 34° W 20:16:27 10° NW visible
19 Apr 12.4 21:00:38 10° WSW 21:01:49 11° W 21:02:59 10° W visible
20 Apr 11.0 20:01:05 10° SSW 20:06:32 37° W 20:11:33 10° NNW visible
21 Apr 12.3 20:55:04 10° WSW 20:56:53 11° W 20:58:40 10° WNW visible
22 Apr 10.8 19:56:10 10° SSW 20:01:37 39° W 20:06:38 10° NNW visible
23 Apr 12.2 20:49:41 10° WSW 20:51:57 12° W 20:54:10 10° WNW visible
24 Apr 10.6 19:51:15 10° S 19:56:42 42° W 20:01:43 10° NNW visible
25 Apr 12.1 20:44:23 10° WSW 20:47:01 13° W 20:49:34 10° WNW visible
